Etusivu
METAR-TAF:

METAR-TAF

Lentoasemat :

Pearson Field

Vancouver, Washington, Yhdysvallat

Leveyspiiri: 45-37-24N, Pituuspiiri: 122-39-23W, korkeus merenpinnasta: 7 m

Tämänhetkinen sää

Tämä raportti tehtiin 38 minuuttia sitten, kello 08.53 UTC
Tuuli 4 kn lännestä/luoteesta
Lämpötila 14°C
Kosteus 63%
Ilmanpaine 1016 hPa
Näkyvyys: 16.1 km
selkeää

METAR: KVUO 120853Z AUTO 30004KT 10SM CLR 14/07 A3000 RMK AO2 SLP159 T01440067 51012

Aika: 02:31 (09:31 UTC)


TAF: puuttuu

Säähavainnot ja -ennusteet yli 4000 lentoasemalta (METAR- ja TAF-raportit).

Käytössä olevat sääasemat on merkitty karttaan keltaisilla ja punaisilla pisteillä.

Aseta hiiri pisteen päälle nähdäksesi sääaseman nimen.

Klikkaa sitten nähdäksesi säähavainnot ja -ennusteet.

Kartan vaihtaminen: klikkaa mustalla rastilla varustettuja vihreitä pisteitä, niin voit zoomata sisään; viivalla varustettua vihreää pistettä, niin voit zoomata ulos tai vihreitä nuolia, niin pääset viereisille kartoille.


METAR-TAF: